Location: Hawks Ness
(60.2333°N, 1.1667°W)
Time: 03:00:32
(UTC+00:00)

NOSS 2-2 (D) - Pass Details

Date: 22 October 2019
Orbit: 490 x 1719 km, 63.3° (Epoch: 09 November)

Event Time Altitude Azimuth Distance (km) Brightness Sun altitude
Exits shadow 03:46:18 41° 146° (SE) 837 4.2 -24.4°
Maximum altitude 03:46:34 42° 135° (SE) 836 4.3 -24.4°
Drops below altitude 10° 03:50:58 10° 65° (ENE) 2,137 7.4 -23.9°
Sets 03:53:42 0° 59° (ENE) 3,239 8.6 -23.6°
